00:36
Airports
History
Links
Donate
Help keep this website running!
PayPal
Bitcoin
Information on this page is community maintained and may be outdated or inaccurate and is intended for reference only or PC simulator navigating.
Always use approved charts for navigating.
SIXW
Cimento Poty
Cimento Poty (SIXW)
Pitimbu, Paraiba, Brazil (58324)
(U)
Lat/Lng:7° 31' 54" S / 34° 51' 42" W
-7.531667 / -34.861667
Elevation:1'ft 0mMSL
ID / ICAO:SIXW
Runways:1
Longest:(12-30) 901.2m 2,957ft Asphalt
Distance To
Airport ID:
Nearby WeatherUpdated 07-27-17 00:00 GMT
Nearby weather at SBJP, Presidente Castro Pinto located 27.2 nautical miles from SIXW
Altimeter: 30.03
Visibility: 6.2 statute miles
Wind: 8 knots (180°)
Temp: 22°c 72°f
Humidity: 94.1%

METAR: SBJP 270000Z 18008KT CAVOK 22/21 Q1017

(Powered by phpweather)
Runway 12 / 30
Dimensions:901.2 x 20.1m 2957' x 66'ft
Surface:Asphalt
Runway 12 [A]Runway 30 [B]
Heading:097°TH 277°TH
Lat:
Lng:
7° 31' 52"S
34° 51' 56.57"W
7° 31' 56"S
34° 51' 27.43"W
User Notes and Comments
Google Map
Nearby Airports
(U) ITAPESSOCA 8.6 NM
SIPE S 177°
(C) Presidente Castro Pinto 27.2 NM
SBJP (WX) NNW 347°
(U) JOAO PESSOA AEROCLUBE 30.4 NM
SNJO N
(U) Encanta Moca 39.0 NM
SNEM S 183°
(C) Recife Intl 41.3 NM
SBRF (WX) S 185°
(C) Rio Tinto 53.7 NM
SNRN NNW 342°
(U) Fazenda Lagoa do Cavalo 68.9 NM
SDWI SW 230°
VFR Chart
Flight Planning at SkyVector.com